Location: Newark
(27.9675°N, 86.8869°E)
Time: 02:16:44
(UTC+00:00)

deb Explorer IX - Pass Details

Date: 24 October 2019
Orbit: 546 x 1105 km, 38.8° (Epoch: 20 November)

Event Time Altitude Azimuth Distance (km) Brightness Sun altitude
Rises 06:36:51 0° 276° (W) 2,912 ? 49.2°
Reaches altitude 10° 06:39:18 10° 287° (WNW) 2,080 ? 49.0°
Maximum altitude 06:43:35 30° 350° (N) 1,287 ? 48.8°
Drops below altitude 10° 06:48:29 10° 50° (NE) 2,404 ? 48.4°
Sets 06:51:31 0° 61° (ENE) 3,447 ? 48.2°
